STARLINK-3325 (50843 NORAD) Tracking and Keplerian Element Data

This shows tracking and keplerian element data for the satellite.

Feedback or suggestion? Click here.




ElementValue
Catalog50843
NameSTARLINK-3325
Epoch Orbit2180
Epoch Day140.91667824
Epoch Year2022
RAAN293.5703
Inclination53.2171
Eccentricity0.000227
Argument of Perigee30.2427
Mean Anonmoly12.852
Mean Motion15.08843296
Decay Rate0.0002304
L11 50843U 22001AS 22140.91667824 .00023040 00000+0 14608-2 0 9996
L22 50843 53.2171 293.5703 0002270 30.2427 12.8520 15.08843296 21804

Live tracking and technical data element details for STARLINK-3325 (NORAD 50843). STARLINK-3325 can be tracked NOW for your location showing map with azimuth and elevation plus other details from your city location.

Track the satellite on the map from your city or location and see movement details for azimuth, elevation, latitude, longitude, range, height, and movement on the map or in text.







IsCatalogInMostPopularTable: catalog: 50843, numindb: 21
Update: records affected: 1



GetName: 50843 STARLINK-3325

Hit Count: updated at: Sun, 22 May 2022 05:32:59 GMT